GFSFLT2_700_spd_099.txt.gz
Wind_Speed
19 18 17 17 18 21 23 23 23 24 24 24 24 27 29 26 28 31 32 37 41 29 28 25 23 20 19 17 15 15 14 12
22 24 21 17 18 22 24 23 25 23 24 24 24 26 27 31 34 33 32 31 35 30 29 27 24 22 19 18 18 17 13 11
21 23 15 17 19 21 22 24 25 25 23 24 26 26 28 31 32 29 32 27 33 30 29 28 26 23 21 21 20 17 12 10
19 20 17 19 21 21 22 23 24 25 24 26 27 29 28 27 29 29 35 39 42 32 31 30 28 24 23 24 21 17 14 12
18 19 18 20 23 23 23 23 24 26 26 28 30 29 26 26 28 32 35 45 41 39 34 31 27 24 24 23 19 16 15 18
23 22 19 21 23 25 25 23 24 25 27 31 25 24 22 23 23 27 46 43 38 37 35 30 29 25 21 21 17 15 17 20
31 28 22 21 22 25 24 23 25 26 26 24 22 21 23 21 20 28 39 42 41 36 34 32 30 27 25 23 18 13 20 21
26 19 20 21 24 26 24 24 24 23 23 21 21 21 22 26 20 21 33 38 43 37 38 34 31 27 26 21 17 23 22 20
22 17 21 24 26 27 25 24 23 23 21 20 22 18 21 30 23 26 47 43 37 39 38 37 31 29 26 27 26 24 22 21
21 22 23 24 27 26 25 25 23 23 20 22 21 21 19 22 28 32 52 42 38 39 41 37 32 29 28 28 26 23 23 22
26 26 24 23 26 27 27 25 23 23 23 22 23 19 17 15 18 34 44 41 40 40 39 36 33 30 29 26 24 20 22 23
27 26 23 23 26 27 27 25 27 27 26 23 23 25 18 16 16 33 41 37 39 40 39 37 32 29 29 26 22 21 20 22
20 24 21 23 25 27 25 26 29 27 27 28 28 30 25 21 14 33 28 32 40 41 40 38 36 35 31 29 26 25 23 21
24 24 22 22 24 26 25 27 25 23 22 29 32 29 29 23 23 23 33 39 42 41 42 40 38 37 35 30 31 30 28 23
23 25 23 22 23 25 24 25 22 18 19 26 32 30 26 23 27 28 27 34 35 41 41 39 40 40 35 31 30 31 25 25
28 27 24 23 22 24 23 24 21 17 12 23 33 33 31 30 29 33 40 43 38 47 41 41 40 40 38 35 30 26 25 22
32 28 25 23 22 23 23 23 22 20 19 20 25 31 32 31 31 40 38 45 47 44 47 44 42 40 37 42 35 34 36 26
32 30 26 22 21 22 21 23 22 22 19 19 21 29 34 36 37 43 46 52 52 49 49 50 47 39 41 38 41 39 35 23
27 29 24 20 21 20 20 21 20 19 17 17 20 24 31 33 39 39 41 52 49 52 51 55 46 43 41 36 35 35 32 27
26 26 19 19 18 17 17 17 15 17 18 16 15 16 31 34 34 30 35 47 59 55 48 46 44 42 39 40 35 34 28 35

GFSFLT2_700_spd_105.txt.gz
Wind_Speed
7 9 10 11 11 7 6 9 11 14 15 16 18 20 22 22 25 25 22 23 17 21 24 13 22 14 12 18 19 18 17 14
7 8 9 12 9 8 8 10 13 15 16 19 21 21 22 24 24 25 25 25 24 26 25 22 26 26 21 21 22 20 17 16
9 11 11 12 11 10 11 12 13 16 17 18 22 23 24 25 26 25 26 25 26 27 24 24 31 33 36 25 23 21 19 17
12 13 12 14 13 12 13 14 15 18 18 19 22 24 25 25 27 28 29 28 28 26 27 27 28 25 24 28 24 22 21 19
16 16 15 16 17 14 14 17 16 18 20 20 21 23 25 26 27 29 29 28 26 32 29 30 27 22 24 26 25 25 22 20
17 19 19 19 19 19 17 15 16 17 19 20 21 25 26 27 27 32 27 32 28 33 31 30 24 26 26 24 27 25 22 19
18 20 21 20 21 18 17 17 18 18 19 20 22 25 28 26 30 29 26 30 30 33 34 34 32 29 28 26 27 24 21 19
19 19 21 21 19 19 19 20 20 19 20 21 22 23 25 27 24 29 27 28 37 38 40 41 35 37 29 29 28 23 21 21
26 23 23 23 20 21 21 23 22 21 22 22 22 21 21 24 23 23 28 25 31 38 42 44 38 39 31 31 29 26 23 21
27 29 27 24 22 23 23 25 25 23 23 22 20 19 20 20 22 20 27 26 25 28 43 48 43 43 34 35 31 27 23 22
31 30 30 25 23 25 24 26 25 24 24 22 21 20 23 22 24 20 24 29 19 34 43 42 40 37 35 32 30 26 23 23
28 27 29 27 24 25 25 25 24 23 24 22 22 22 23 19 24 21 21 22 22 33 35 34 40 35 36 32 31 28 26 24
31 29 34 31 25 23 22 23 23 23 24 22 22 22 22 21 23 25 26 25 26 37 33 29 42 41 39 37 33 29 27 26
31 27 25 26 28 24 24 24 23 23 24 22 22 20 20 22 26 29 22 21 31 41 42 36 50 49 41 35 35 33 30 28
34 31 26 28 26 26 25 24 21 23 24 22 21 21 20 20 28 26 27 25 24 32 48 44 48 49 37 37 37 36 30 27
35 35 32 30 26 26 26 23 22 22 24 23 23 21 20 21 26 25 21 24 15 30 49 42 42 49 43 39 33 30 28 26
36 36 34 29 27 27 26 24 22 23 24 23 22 20 19 20 26 28 26 19 26 20 36 37 36 47 46 38 37 30 27 24
38 37 35 31 28 29 26 22 21 23 23 22 21 19 19 19 28 24 27 23 30 27 19 24 30 45 39 37 35 35 33 29
38 40 34 32 27 29 24 21 21 22 21 20 19 18 18 21 24 23 27 21 33 29 30 25 31 41 41 40 37 38 38 41
38 35 34 34 30 24 23 21 22 19 19 16 15 14 16 19 20 26 30 28 30 29 33 29 35 40 40 40 42 40 41 45

GFSFLT2_700_spd_108.txt.gz
Wind_Speed
3 3 5 6 7 5 3 5 5 6 8 11 11 13 16 19 21 20 24 24 19 19 17 16 10 11 11 11 12 14 14 15
7 6 5 5 6 6 6 7 7 9 10 12 13 14 17 19 21 23 24 23 20 19 16 18 17 19 15 12 11 13 18 17
9 10 10 8 8 8 9 10 10 11 13 13 14 16 18 19 21 23 24 22 21 22 22 23 23 24 24 18 18 16 19 19
13 12 12 13 12 11 10 13 14 15 15 15 16 17 19 21 23 25 25 25 26 26 24 23 23 26 28 24 25 23 23 23
15 15 16 17 16 15 12 12 15 16 18 17 16 18 20 22 23 26 27 30 30 29 27 26 25 31 32 22 32 29 26 25
19 19 19 20 20 18 17 15 13 13 16 17 17 18 20 22 22 26 29 31 30 30 30 26 29 29 30 24 19 24 27 27
20 20 21 22 23 21 21 17 15 14 16 18 18 18 20 21 24 27 28 27 28 31 29 31 30 32 30 25 23 25 26 27
23 21 21 20 21 22 22 21 19 17 17 18 20 20 21 20 23 25 26 28 33 29 29 29 30 33 26 30 24 25 25 25
27 26 27 27 24 23 23 24 23 20 19 20 21 21 21 19 22 23 32 29 31 27 26 34 35 33 34 26 26 27 25 25
29 29 29 29 30 27 26 26 25 23 21 21 23 22 20 19 20 23 27 28 30 31 31 30 33 43 36 32 28 29 27 26
35 34 31 30 31 32 27 27 25 25 22 22 24 23 22 22 23 24 24 24 27 33 36 31 38 42 43 35 33 32 29 28
35 34 32 33 34 33 30 27 24 24 21 23 25 24 23 24 23 21 26 27 28 29 24 30 42 44 41 41 36 34 33 30
35 35 33 32 31 31 29 25 23 22 22 24 25 24 24 24 22 21 27 27 24 24 27 25 41 48 48 45 36 33 35 30
36 36 35 34 33 34 32 27 26 24 25 24 24 24 24 24 22 23 29 29 24 24 23 30 34 39 41 47 43 37 34 33
36 36 37 36 34 31 33 32 30 27 23 22 24 25 25 24 23 26 30 29 24 27 27 34 36 32 45 45 47 45 35 31
37 38 39 38 36 30 30 31 29 25 24 24 25 25 26 26 24 24 32 30 31 31 31 35 41 40 46 42 42 38 33 33
34 35 40 39 37 31 30 31 30 29 25 25 26 25 26 27 24 25 28 33 24 27 22 36 47 45 44 48 47 37 33 30
32 35 38 39 38 34 32 32 31 28 26 26 27 26 27 26 22 22 29 26 25 24 21 24 49 43 39 52 48 44 37 30
30 35 35 39 36 36 33 32 31 27 25 26 26 26 27 22 22 22 23 21 27 25 22 18 41 35 33 43 43 45 33 34
29 31 35 39 35 37 36 32 30 26 24 25 25 25 23 18 19 18 22 21 25 23 25 20 21 17 27 31 52 44 34 38

GFSFLT2_700_spd_114.txt.gz
Wind_Speed
7 5 3 3 6 5 4 4 5 5 6 6 8 11 11 12 11 13 13 12 13 13 13 14 12 14 13 11 12 13 11 19
10 9 6 3 2 3 2 2 3 5 6 7 8 11 11 12 13 14 15 15 16 16 16 17 16 18 16 15 17 16 18 10
14 13 10 7 5 4 1 1 4 6 7 8 8 10 11 12 14 14 15 17 17 18 18 18 15 14 12 14 15 17 19 19
18 15 13 11 10 9 7 5 5 7 10 11 12 12 13 13 15 16 17 19 20 19 19 19 18 18 18 18 19 17 18 27
22 19 17 15 15 12 12 10 9 8 10 11 13 14 15 16 17 15 17 20 20 19 20 22 21 19 21 20 20 20 22 27
25 22 21 19 19 17 15 16 13 11 10 10 11 13 14 15 17 18 19 21 22 21 21 24 24 22 24 22 21 23 27 30
27 25 23 22 23 21 21 15 17 16 13 12 12 12 13 14 17 19 19 22 22 25 23 23 25 24 25 27 24 26 30 24
29 30 25 24 24 24 23 23 18 22 17 16 16 15 14 15 17 18 20 21 23 21 20 23 25 25 25 25 28 27 32 31
27 32 34 25 25 25 26 27 22 23 23 22 20 19 19 16 18 18 19 21 23 22 21 25 28 25 24 24 22 26 33 23
31 33 38 33 28 28 26 28 29 27 24 25 24 22 21 19 20 19 19 21 24 24 25 26 30 27 30 26 26 25 22 27
29 35 41 39 31 31 31 29 31 31 30 26 26 24 23 20 22 21 21 22 24 25 26 29 31 32 28 30 23 26 24 25
30 32 37 43 37 33 34 33 33 31 31 30 27 26 23 22 22 24 23 23 25 27 28 30 32 32 26 32 29 26 28 32
36 33 35 42 41 36 36 36 36 32 31 32 30 29 24 24 23 25 24 24 24 28 28 32 31 26 26 29 26 33 26 32
43 45 43 43 41 38 36 35 37 33 31 32 34 30 27 27 25 26 25 25 25 28 30 30 30 27 30 28 27 37 38 32
42 41 40 40 40 41 42 42 39 35 32 32 34 31 30 29 28 27 27 27 27 28 31 26 27 24 24 22 31 41 42 38
44 42 39 38 41 41 45 42 38 35 35 32 36 34 32 30 31 28 28 30 29 28 30 27 29 27 33 28 28 48 45 36
26 28 32 36 38 41 45 42 40 37 37 36 37 38 35 31 33 30 29 31 31 30 29 29 28 25 25 25 30 46 51 38
28 26 28 32 34 36 41 39 39 38 37 38 36 39 36 33 33 30 31 32 33 29 29 29 25 31 27 28 27 32 54 44
21 26 27 29 32 36 39 38 37 36 37 38 37 38 37 32 33 31 32 32 33 28 28 27 29 26 24 26 37 29 30 45
25 27 28 29 32 35 38 39 35 36 37 40 37 37 34 31 33 31 32 32 31 26 27 25 24 25 23 23 34 36 39 35

GFSFLT2_700_spd_117.txt.gz
Wind_Speed
9 7 6 3 2 4 6 7 7 7 6 6 7 8 8 10 10 10 11 11 11 9 10 9 9 8 12 12 12 12 12 12
11 9 8 6 3 3 4 5 6 6 5 3 5 5 6 8 10 11 11 12 12 13 13 12 12 10 11 14 14 15 18 14
14 12 11 9 7 5 4 3 4 5 5 4 5 5 4 6 8 9 11 13 14 15 15 14 14 12 11 9 11 12 19 18
18 16 15 13 11 9 7 5 4 5 6 7 7 8 8 9 9 11 13 15 16 15 17 16 15 13 12 12 13 15 17 17
22 20 19 16 15 13 11 9 8 6 7 8 8 9 10 10 11 11 13 14 15 15 15 17 16 14 14 15 17 18 17 14
25 24 22 20 18 17 15 14 12 11 9 9 9 7 9 9 9 11 13 16 17 16 16 17 18 16 17 19 22 21 18 21
20 24 22 22 22 20 18 16 16 15 14 13 11 10 9 9 11 11 12 15 18 18 17 17 18 16 19 20 22 22 21 22
23 22 22 21 25 24 22 18 19 18 18 17 17 15 13 12 12 12 14 15 18 19 16 16 16 18 19 21 22 22 23 25
28 24 23 23 24 24 26 22 20 19 19 20 21 21 18 17 14 14 14 16 18 18 16 17 19 18 20 20 20 22 24 26
31 25 25 27 26 27 28 26 23 22 21 22 23 24 23 21 18 16 15 17 19 18 19 19 21 19 20 22 24 26 25 25
40 38 34 34 34 32 30 31 29 26 24 24 24 25 26 25 21 19 17 17 19 20 21 21 23 23 23 25 26 27 25 28
31 31 30 32 34 36 36 34 35 31 28 26 25 26 27 28 25 22 20 18 19 20 22 21 24 25 26 27 28 28 26 31
38 39 35 34 35 39 41 33 33 36 33 28 27 25 26 29 29 26 22 20 20 22 23 24 24 25 28 30 25 30 30 30
37 39 39 37 39 42 45 40 31 35 34 34 30 27 27 31 32 29 27 22 21 22 25 26 25 25 29 27 30 27 27 24
36 40 40 40 41 42 46 44 37 34 34 32 31 30 28 30 32 31 30 26 24 24 25 28 28 25 27 28 30 35 29 29
41 44 45 42 43 44 47 45 41 36 34 33 34 32 31 30 33 33 32 29 26 25 26 28 31 26 26 30 30 28 24 32
44 46 47 48 48 49 51 49 42 37 36 34 34 35 32 31 34 35 34 31 28 27 29 29 30 29 26 30 30 31 31 34
44 47 47 47 50 45 42 40 40 39 38 36 35 37 36 34 35 36 35 32 30 29 31 31 30 30 27 28 26 25 28 26
32 35 34 34 33 36 40 42 40 40 39 36 36 38 38 34 35 37 37 33 30 30 32 31 28 27 24 24 29 28 23 21
20 25 25 26 29 32 35 38 41 42 39 36 36 38 37 34 34 37 36 33 31 31 31 29 24 25 25 25 25 21 27 33

GFSFLT2_700_spd_123.txt.gz
Wind_Speed
9 10 8 6 4 3 2 3 4 6 9 10 12 14 14 15 15 13 12 11 12 11 10 10 10 10 8 8 7 7 6 6
14 12 10 7 5 5 5 5 5 7 8 9 9 10 10 11 12 11 10 9 10 11 11 10 13 13 10 12 8 8 7 5
16 15 13 10 8 8 7 7 7 8 8 9 9 8 9 10 10 10 10 10 9 10 12 11 13 13 11 11 10 5 4 6
19 15 15 12 12 11 10 9 8 8 8 8 8 9 8 9 9 9 9 9 9 10 12 13 13 14 12 13 11 10 8 8
19 17 16 15 16 14 12 11 10 9 9 9 10 10 10 10 10 9 9 8 9 9 10 12 13 15 15 14 14 14 11 11
22 20 20 17 16 18 16 14 12 11 9 8 8 9 9 9 9 9 10 8 9 10 11 13 14 16 16 18 17 17 15 14
25 23 23 21 18 21 19 17 15 13 12 10 9 8 10 10 9 8 10 10 9 10 11 14 16 16 18 20 19 19 18 16
26 25 27 26 24 24 21 18 17 17 16 13 13 12 12 12 11 9 9 9 10 10 11 13 15 17 18 19 20 21 19 17
27 24 30 32 29 27 24 21 20 19 19 18 17 16 15 15 16 14 12 11 11 11 11 11 13 15 16 17 18 20 19 19
29 26 26 21 21 22 22 21 22 23 23 23 21 20 19 19 19 18 17 16 14 12 12 11 12 14 16 17 18 19 21 22
29 28 24 25 27 26 26 25 25 24 21 22 24 23 23 21 21 21 22 21 18 15 15 13 12 13 16 18 19 20 23 24
28 30 28 28 31 32 31 31 30 28 26 26 25 25 24 24 23 23 24 24 22 19 18 17 15 14 16 18 19 21 24 26
37 36 33 35 35 34 34 35 34 31 29 28 25 25 27 26 25 25 26 25 25 24 23 22 20 18 18 18 21 22 24 27
42 43 39 38 39 39 34 30 32 33 32 29 29 25 25 28 27 27 28 27 27 27 27 25 25 23 22 22 23 24 25 24
49 48 45 41 40 41 37 35 34 36 37 33 28 24 23 25 28 30 30 31 30 30 30 29 28 27 26 25 27 27 25 23
43 45 41 47 47 43 37 37 36 38 33 30 32 29 28 27 28 33 32 33 33 30 31 32 30 31 30 28 28 29 30 29
41 44 41 40 39 40 44 43 39 35 36 37 38 36 33 32 34 36 38 36 35 32 32 35 33 33 32 30 31 30 32 29
42 40 42 42 41 40 39 44 41 40 39 40 39 40 39 39 40 41 39 39 36 35 34 35 36 35 34 33 32 32 32 29
48 42 38 38 38 37 39 41 44 40 39 39 40 42 42 45 39 38 40 38 37 39 36 35 37 37 36 33 33 32 32 26
35 36 37 37 35 35 34 34 35 35 38 41 42 45 45 40 38 38 42 42 40 39 38 36 37 38 37 35 34 32 32 25